TimeAKDT,TemperatureF,Dew PointF,Humidity,Sea Level PressureIn,VisibilityMPH,Wind Direction,Wind SpeedMPH,Gust SpeedMPH,PrecipitationIn,Events,Conditions,WindDirDegrees,DateUTC
12:16 AM,37.4,33.8,87,30.45,10.0,Calm,Calm,-,N/A,,Clear,0,2012-10-02 08:16:00
12:36 AM,37.4,33.8,87,30.46,10.0,South,4.6,-,N/A,,Clear,170,2012-10-02 08:36:00
12:56 AM,37.4,33.8,87,30.46,10.0,South,4.6,-,N/A,,Clear,180,2012-10-02 08:56:00
1:16 AM,35.6,33.8,93,30.47,10.0,SSW,3.5,-,N/A,,Clear,200,2012-10-02 09:16:00
1:36 AM,37.4,35.6,93,30.48,10.0,Calm,Calm,-,N/A,,Clear,0,2012-10-02 09:36:00
1:56 AM,37.4,35.6,93,30.49,10.0,ESE,4.6,-,N/A,,Clear,120,2012-10-02 09:56:00
2:16 AM,37.4,33.8,87,30.50,10.0,ESE,3.5,-,N/A,,Clear,120,2012-10-02 10:16:00
2:36 AM,37.4,33.8,87,30.51,10.0,ESE,6.9,-,N/A,,Clear,120,2012-10-02 10:36:00
2:56 AM,37.4,33.8,87,30.51,10.0,Calm,Calm,-,N/A,,Clear,0,2012-10-02 10:56:00
3:16 AM,35.6,33.8,93,30.52,10.0,Calm,Calm,-,N/A,,Clear,0,2012-10-02 11:16:00
3:36 AM,35.6,30.2,81,30.52,10.0,SE,4.6,-,N/A,,Clear,140,2012-10-02 11:36:00
3:56 AM,35.6,30.2,81,30.53,10.0,Calm,Calm,-,N/A,,Clear,0,2012-10-02 11:56:00
4:16 AM,33.8,30.2,87,30.54,10.0,Calm,Calm,-,N/A,,Clear,0,2012-10-02 12:16:00
4:36 AM,35.6,32.0,87,30.55,10.0,Calm,Calm,-,N/A,,Clear,0,2012-10-02 12:36:00
4:56 AM,35.6,33.8,93,30.55,10.0,SSW,3.5,-,N/A,,Clear,210,2012-10-02 12:56:00
5:16 AM,33.8,30.2,87,30.55,10.0,Calm,Calm,-,N/A,,Clear,0,2012-10-02 13:16:00
5:36 AM,33.8,32.0,93,30.56,10.0,Calm,Calm,-,N/A,,Clear,0,2012-10-02 13:36:00
5:56 AM,33.8,33.8,100,30.56,10.0,Calm,Calm,-,N/A,,Clear,0,2012-10-02 13:56:00
6:16 AM,32.0,28.4,87,30.57,10.0,Calm,Calm,-,N/A,,Clear,0,2012-10-02 14:16:00
6:36 AM,33.8,32.0,93,30.57,10.0,SSE,5.8,-,N/A,,Clear,150,2012-10-02 14:36:00
6:56 AM,35.6,33.8,93,30.57,10.0,ESE,4.6,-,N/A,,Clear,110,2012-10-02 14:56:00
7:16 AM,37.4,33.8,87,30.58,10.0,ESE,4.6,-,N/A,,Clear,110,2012-10-02 15:16:00
7:36 AM,37.4,33.8,87,30.58,10.0,ESE,4.6,-,N/A,,Clear,120,2012-10-02 15:36:00
7:56 AM,37.4,33.8,87,30.58,10.0,SE,4.6,-,N/A,,Partly Cloudy,130,2012-10-02 15:56:00
8:16 AM,37.4,33.8,87,30.58,10.0,Calm,Calm,-,N/A,,Partly Cloudy,0,2012-10-02 16:16:00
8:36 AM,35.6,33.8,93,30.58,10.0,Calm,Calm,-,N/A,,Partly Cloudy,0,2012-10-02 16:36:00
8:56 AM,37.4,33.8,87,30.58,10.0,WSW,3.5,-,N/A,,Clear,240,2012-10-02 16:56:00
9:16 AM,39.2,35.6,87,30.59,10.0,Calm,Calm,-,N/A,,Clear,0,2012-10-02 17:16:00
9:36 AM,-9999,-9999,N/A,30.59,10.0,Calm,Calm,-,N/A,,Clear,0,2012-10-02 17:36:00
9:56 AM,42.8,35.6,76,30.60,10.0,Calm,Calm,-,N/A,,Partly Cloudy,0,2012-10-02 17:56:00
10:16 AM,42.8,35.6,76,30.61,10.0,NE,3.5,-,N/A,,Partly Cloudy,50,2012-10-02 18:16:00
10:36 AM,42.8,35.6,76,30.62,10.0,Calm,Calm,-,N/A,,Clear,0,2012-10-02 18:36:00
10:56 AM,44.6,37.4,76,30.62,10.0,East,3.5,-,N/A,,Clear,90,2012-10-02 18:56:00
11:16 AM,44.6,35.6,71,30.62,10.0,Calm,Calm,-,N/A,,Clear,0,2012-10-02 19:16:00
11:36 AM,44.6,35.6,71,30.61,10.0,ENE,4.6,-,N/A,,Partly Cloudy,70,2012-10-02 19:36:00
11:56 AM,44.6,37.4,76,30.61,10.0,NE,4.6,-,N/A,,Partly Cloudy,50,2012-10-02 19:56:00
12:16 PM,44.6,37.4,76,30.62,10.0,East,4.6,-,N/A,,Partly Cloudy,80,2012-10-02 20:16:00
12:36 PM,46.4,33.8,62,30.62,10.0,ENE,4.6,-,N/A,,Partly Cloudy,60,2012-10-02 20:36:00
12:56 PM,46.4,33.8,62,30.62,10.0,NE,5.8,-,N/A,,Partly Cloudy,40,2012-10-02 20:56:00
1:16 PM,44.6,33.8,66,30.61,10.0,NE,5.8,-,N/A,,Partly Cloudy,50,2012-10-02 21:16:00
1:36 PM,44.6,35.6,71,30.60,10.0,NE,4.6,-,N/A,,Partly Cloudy,40,2012-10-02 21:36:00
1:56 PM,44.6,35.6,71,30.60,10.0,NE,5.8,-,N/A,,Partly Cloudy,40,2012-10-02 21:56:00
2:16 PM,46.4,35.6,66,30.60,10.0,East,3.5,-,N/A,,Partly Cloudy,80,2012-10-02 22:16:00
2:36 PM,46.4,35.6,66,30.60,10.0,NE,4.6,-,N/A,,Partly Cloudy,50,2012-10-02 22:36:00
2:56 PM,46.4,35.6,66,30.60,10.0,NE,4.6,-,N/A,,Scattered Clouds,40,2012-10-02 22:56:00
3:16 PM,46.4,33.8,62,30.60,10.0,ENE,4.6,-,N/A,,Scattered Clouds,60,2012-10-02 23:16:00
3:36 PM,46.4,35.6,66,30.60,10.0,ENE,3.5,-,N/A,,Scattered Clouds,70,2012-10-02 23:36:00
3:56 PM,46.4,35.6,66,30.59,10.0,Calm,Calm,-,N/A,,Scattered Clouds,0,2012-10-02 23:56:00
4:16 PM,46.4,33.8,62,30.59,10.0,Calm,Calm,-,N/A,,Scattered Clouds,0,2012-10-03 00:16:00
4:36 PM,46.4,35.6,66,30.60,10.0,East,3.5,-,N/A,,Scattered Clouds,80,2012-10-03 00:36:00
4:56 PM,44.6,37.4,76,30.59,-9999.0,ENE,3.5,-,N/A,,Scattered Clouds,70,2012-10-03 00:56:00
5:16 PM,44.6,37.4,76,30.58,10.0,Calm,Calm,-,N/A,,Clear,0,2012-10-03 01:16:00
5:36 PM,44.6,37.4,76,30.58,10.0,NE,3.5,-,N/A,,Clear,50,2012-10-03 01:36:00
5:56 PM,44.6,37.4,76,30.58,10.0,East,3.5,-,N/A,,Clear,90,2012-10-03 01:56:00
6:16 PM,42.8,37.4,81,30.58,10.0,East,3.5,-,N/A,,Clear,90,2012-10-03 02:16:00
6:36 PM,42.8,35.6,76,30.57,10.0,SE,4.6,-,N/A,,Clear,130,2012-10-03 02:36:00
6:56 PM,41.0,35.6,81,30.57,10.0,SE,5.8,-,N/A,,Clear,130,2012-10-03 02:56:00
7:16 PM,41.0,35.6,81,30.57,10.0,SE,4.6,-,N/A,,Clear,130,2012-10-03 03:16:00
8:45 PM,42.8,35.6,76,30.57,10.0,Calm,Calm,-,N/A,,Clear,0,2012-10-03 04:45:00
9:16 PM,39.2,35.6,87,30.55,10.0,Calm,Calm,-,N/A,,Clear,0,2012-10-03 05:16:00
9:36 PM,39.2,35.6,87,30.55,10.0,Calm,Calm,-,N/A,,Clear,0,2012-10-03 05:36:00
9:56 PM,39.2,37.4,93,30.55,10.0,Calm,Calm,-,N/A,,Clear,0,2012-10-03 05:56:00
10:16 PM,39.2,37.4,93,30.55,10.0,Calm,Calm,-,N/A,,Mostly Cloudy,0,2012-10-03 06:16:00
10:36 PM,39.2,37.4,93,30.55,10.0,Calm,Calm,-,N/A,,Mostly Cloudy,0,2012-10-03 06:36:00
10:56 PM,39.2,37.4,93,30.55,10.0,Calm,Calm,-,N/A,,Mostly Cloudy,0,2012-10-03 06:56:00
11:16 PM,39.2,37.4,93,30.54,10.0,Calm,Calm,-,N/A,,Overcast,0,2012-10-03 07:16:00
11:36 PM,39.2,35.6,87,30.54,10.0,Calm,Calm,-,N/A,,Overcast,0,2012-10-03 07:36:00
11:56 PM,39.2,37.4,93,30.54,10.0,WSW,3.5,-,N/A,,Mostly Cloudy,240,2012-10-03 07:56:00